�������l�o���
Date,Time,MP-1(��Sv/h),MP-2(��Sv/h),MP-3(��Sv/h),MP-4(��Sv/h),MP-5(��Sv/h),MP-6(��Sv/h),MP-7(��Sv/h),MP-8(��Sv/h),����,����(m/s),���J
2023/05/22,00:00,0.553,0.804,0.490,0.966,0.707,0.324,0.571,0.539,�k,2.0,��
2023/05/22,00:10,0.555,0.804,0.491,0.966,0.708,0.324,0.570,0.539,�k�k��,3.4,��
2023/05/22,00:20,0.553,0.803,0.490,0.966,0.707,0.324,0.572,0.541,�k�k��,3.2,��
2023/05/22,00:30,0.553,0.804,0.492,0.965,0.708,0.325,0.571,0.541,�k��,3.4,��
2023/05/22,00:40,0.555,0.804,0.492,0.965,0.707,0.324,0.570,0.538,�k�k��,3.9,��
2023/05/22,00:50,0.553,0.804,0.491,0.966,0.709,0.324,0.571,0.537,�k�k��,4.0,��
2023/05/22,01:00,0.553,0.805,0.490,0.967,0.707,0.324,0.571,0.539,�k�k��,3.5,��
2023/05/22,01:10,0.553,0.805,0.490,0.968,0.708,0.323,0.570,0.539,�k�k��,3.7,��
2023/05/22,01:20,0.551,0.805,0.492,0.965,0.706,0.324,0.569,0.539,�k,3.6,��
2023/05/22,01:30,0.553,0.804,0.491,0.967,0.706,0.323,0.570,0.539,�k,3.0,��
2023/05/22,01:40,0.552,0.803,0.491,0.966,0.704,0.324,0.570,0.539,�k�k��,2.6,��
2023/05/22,01:50,0.552,0.804,0.491,0.967,0.707,0.324,0.570,0.538,�k,2.0,��
2023/05/22,02:00,0.552,0.800,0.490,0.966,0.704,0.323,0.569,0.539,�k�k��,2.0,��
2023/05/22,02:10,0.551,0.805,0.491,0.967,0.704,0.324,0.568,0.538,�k�k��,1.7,��
2023/05/22,02:20,0.552,0.804,0.491,0.965,0.705,0.323,0.568,0.539,�k�k��,1.5,��
2023/05/22,02:30,0.553,0.803,0.490,0.968,0.706,0.323,0.569,0.537,���k��,0.6,��
2023/05/22,02:40,0.552,0.803,0.490,0.965,0.705,0.323,0.570,0.539,�k��,1.2,��
2023/05/22,02:50,0.551,0.804,0.490,0.967,0.706,0.323,0.569,0.539,�k,0.8,��
2023/05/22,03:00,0.552,0.802,0.491,0.968,0.707,0.323,0.570,0.539,�k��,1.5,��
2023/05/22,03:10,0.552,0.803,0.490,0.967,0.706,0.324,0.568,0.539,�k,0.6,��
2023/05/22,03:20,0.552,0.805,0.491,0.966,0.706,0.324,0.569,0.538,-,CALM,��
2023/05/22,03:30,0.552,0.803,0.491,0.965,0.704,0.324,0.568,0.539,�k�k��,2.6,��
2023/05/22,03:40,0.553,0.802,0.490,0.966,0.708,0.322,0.570,0.538,�k�k��,1.5,��
2023/05/22,03:50,0.552,0.803,0.491,0.967,0.707,0.324,0.569,0.538,�k,1.1,��
2023/05/22,04:00,0.552,0.802,0.489,0.966,0.706,0.324,0.571,0.538,�k�k��,1.5,��
2023/05/22,04:10,0.553,0.803,0.490,0.964,0.706,0.324,0.569,0.537,�k,1.2,��
2023/05/22,04:20,0.551,0.803,0.490,0.966,0.705,0.324,0.570,0.540,�k��,1.5,��
2023/05/22,04:30,0.552,0.803,0.489,0.966,0.706,0.325,0.572,0.538,�k,1.7,��
2023/05/22,04:40,0.554,0.804,0.491,0.967,0.704,0.324,0.570,0.537,�k,1.9,��
2023/05/22,04:50,0.554,0.804,0.490,0.965,0.708,0.324,0.571,0.539,�k�k��,1.7,��
2023/05/22,05:00,0.553,0.803,0.490,0.967,0.708,0.322,0.569,0.538,�k,2.3,��
2023/05/22,05:10,0.553,0.804,0.490,0.966,0.707,0.324,0.571,0.538,�k�k��,3.0,��
2023/05/22,05:20,0.553,0.803,0.489,0.967,0.705,0.324,0.570,0.539,�k,3.5,��
2023/05/22,05:30,0.555,0.804,0.490,0.967,0.706,0.324,0.570,0.538,�k,4.9,��
2023/05/22,05:40,0.554,0.803,0.492,0.966,0.707,0.325,0.570,0.539,�k,2.8,��
2023/05/22,05:50,0.553,0.803,0.490,0.966,0.708,0.323,0.571,0.539,�k,4.3,��
2023/05/22,06:00,0.551,0.804,0.490,0.967,0.706,0.323,0.569,0.538,�k,6.4,��
2023/05/22,06:10,0.554,0.804,0.491,0.968,0.708,0.323,0.571,0.540,�k�k��,5.0,��
2023/05/22,06:20,0.555,0.804,0.492,0.968,0.707,0.324,0.571,0.539,���k��,6.2,��
2023/05/22,06:30,0.552,0.803,0.491,0.969,0.708,0.324,0.570,0.539,���k��,6.6,��
2023/05/22,06:40,0.554,0.804,0.490,0.967,0.708,0.324,0.570,0.538,���k��,8.7,��
2023/05/22,06:50,0.553,0.804,0.490,0.967,0.708,0.323,0.569,0.538,��,6.8,��
2023/05/22,07:00,0.554,0.803,0.492,0.968,0.707,0.322,0.569,0.539,�쐼,2.5,��
2023/05/22,07:10,0.553,0.802,0.490,0.969,0.707,0.322,0.568,0.539,��쐼,1.7,��
2023/05/22,07:20,0.552,0.803,0.489,0.967,0.706,0.323,0.569,0.539,���쐼,0.9,��
2023/05/22,07:30,0.551,0.803,0.490,0.967,0.706,0.322,0.568,0.538,�k�k��,1.1,��
2023/05/22,07:40,0.552,0.803,0.489,0.969,0.706,0.324,0.568,0.537,��,0.6,��
2023/05/22,07:50,0.551,0.803,0.490,0.967,0.709,0.321,0.569,0.537,���쐼,2.3,��
2023/05/22,08:00,0.553,0.802,0.491,0.969,0.706,0.324,0.568,0.536,���쐼,2.6,��
2023/05/22,08:10,0.551,0.802,0.490,0.969,0.707,0.323,0.569,0.534,���쐼,1.5,��
2023/05/22,08:20,0.553,0.801,0.491,0.968,0.707,0.323,0.568,0.536,��,2.3,��
2023/05/22,08:30,0.550,0.801,0.489,0.968,0.705,0.323,0.568,0.536,���k��,4.4,��
2023/05/22,08:40,0.551,0.802,0.491,0.969,0.708,0.322,0.569,0.535,�k��,2.6,��
2023/05/22,08:50,0.549,0.803,0.491,0.968,0.709,0.325,0.570,0.535,��,2.0,��
2023/05/22,09:00,0.552,0.803,0.492,0.967,0.708,0.323,0.569,0.536,�k�k��,1.2,��
2023/05/22,09:10,0.552,0.804,0.502,0.969,0.707,0.324,0.569,0.537,�k��,2.9,��
2023/05/22,09:20,0.551,0.803,0.491,0.970,0.709,0.322,0.570,0.535,��,2.2,��
2023/05/22,09:30,0.551,0.805,0.489,0.970,0.709,0.323,0.570,0.535,��,2.9,��
2023/05/22,09:40,0.552,0.803,0.490,0.969,0.709,0.322,0.571,0.535,���쓌,1.9,��
2023/05/22,09:50,0.550,0.806,0.489,0.970,0.706,0.322,0.570,0.537,���k��,3.8,��
2023/05/22,10:00,0.553,0.805,0.489,0.971,0.707,0.323,0.571,0.538,���k��,4.1,��
2023/05/22,10:10,0.553,0.807,0.488,0.971,0.708,0.322,0.570,0.537,��,4.1,��
2023/05/22,10:20,0.551,0.806,0.490,0.971,0.709,0.323,0.570,0.538,���k��,5.5,��
2023/05/22,10:30,0.551,0.804,0.492,0.972,0.709,0.323,0.571,0.537,���k��,5.1,��
2023/05/22,10:40,0.553,0.805,0.490,0.971,0.710,0.320,0.569,0.538,���k��,5.4,��
2023/05/22,10:50,0.552,0.806,0.489,0.970,0.709,0.322,0.568,0.538,���k��,4.6,��
2023/05/22,11:00,0.552,0.806,0.491,0.971,0.709,0.322,0.571,0.538,���k��,5.4,��
2023/05/22,11:10,0.553,0.807,0.489,0.972,0.710,0.324,0.568,0.535,���k��,5.2,��
2023/05/22,11:20,0.553,0.808,0.492,0.968,0.710,0.323,0.570,0.538,���k��,4.0,��
2023/05/22,11:30,0.554,0.809,0.491,0.968,0.710,0.324,0.571,0.538,���k��,4.1,��
2023/05/22,11:40,0.555,0.807,0.490,0.969,0.711,0.323,-,0.537,���k��,4.2,��
2023/05/22,11:50,0.555,0.810,0.490,0.971,0.712,0.323,-,0.537,���k��,4.0,��
2023/05/22,12:00,0.555,0.810,0.489,0.970,0.712,0.324,-,0.539,��,3.2,��
2023/05/22,12:10,0.554,0.809,0.491,0.970,0.710,0.324,-,0.537,���k��,3.4,��
2023/05/22,12:20,0.555,0.810,0.491,0.970,0.713,0.323,-,0.538,��,2.9,��
2023/05/22,12:30,0.554,0.807,0.490,0.972,0.711,0.323,-,0.536,��,2.5,��
2023/05/22,12:40,0.556,0.809,0.491,0.970,0.712,0.324,-,0.538,��,3.2,��
2023/05/22,12:50,0.553,0.810,0.491,0.971,0.712,0.324,-,0.536,��,2.9,��
2023/05/22,13:00,0.555,0.809,0.492,0.971,0.713,0.323,-,0.539,���쓌,3.1,��
2023/05/22,13:10,0.554,0.810,0.493,0.971,0.712,0.322,-,0.538,���쓌,2.8,��
2023/05/22,13:20,0.555,0.809,0.490,0.970,0.712,0.324,-,0.537,��,2.3,��
2023/05/22,13:30,0.554,0.810,0.491,0.972,0.714,0.323,-,0.538,���쓌,2.9,��
2023/05/22,13:40,0.555,0.811,0.493,0.972,0.710,0.323,-,0.537,���쓌,2.3,��
2023/05/22,13:50,0.556,0.810,0.491,0.971,0.714,0.323,-,0.539,��,3.6,��
2023/05/22,14:00,0.555,0.809,0.494,0.974,0.713,0.324,-,0.538,��,2.6,��
2023/05/22,14:10,0.556,0.810,0.490,0.972,0.714,0.323,-,0.539,���쓌,2.3,��
2023/05/22,14:20,0.556,0.810,0.492,0.973,0.714,0.323,-,0.539,��,2.2,��
2023/05/22,14:30,0.554,0.809,0.491,0.974,0.715,0.323,0.569,0.539,��,1.5,��
2023/05/22,14:40,0.554,0.812,0.492,0.971,0.714,0.324,0.570,0.539,��,1.7,��
2023/05/22,14:50,0.553,0.811,0.493,0.973,0.714,0.324,0.571,0.539,���쓌,2.3,��
2023/05/22,15:00,0.554,0.808,0.493,0.971,0.713,0.324,0.570,0.538,���쓌,2.8,��
2023/05/22,15:10,0.553,0.812,0.491,0.971,0.714,0.324,0.570,0.538,���쓌,1.9,��
2023/05/22,15:20,0.554,0.809,0.493,0.972,0.712,0.321,0.571,0.539,���k��,2.2,��
2023/05/22,15:30,0.555,0.810,0.492,0.972,0.713,0.325,0.571,0.539,���쓌,1.5,��
2023/05/22,15:40,0.555,0.811,0.492,0.973,0.714,0.322,0.571,0.539,���쓌,1.2,�L
2023/05/22,15:50,0.556,0.811,0.493,0.977,0.711,0.324,0.571,0.537,�k��,1.2,�L
2023/05/22,16:00,0.556,0.811,0.494,0.976,0.713,0.324,0.573,0.537,��,1.2,��
2023/05/22,16:10,0.555,0.813,0.493,0.976,0.713,0.323,0.573,0.539,��,1.2,��
2023/05/22,16:20,0.555,0.811,0.494,0.975,0.714,0.324,0.575,0.538,��,0.9,��
2023/05/22,16:30,0.556,0.813,0.493,0.976,0.715,0.324,0.573,0.541,��쓌,0.9,��
2023/05/22,16:40,0.557,0.813,0.494,0.977,0.714,0.324,0.573,0.540,-,CALM,��
2023/05/22,16:50,0.556,0.813,0.494,0.974,0.713,0.323,0.574,0.539,�k�k��,1.5,��
2023/05/22,17:00,0.556,0.813,0.493,0.976,0.716,0.322,0.573,0.540,�k�k��,0.9,��
2023/05/22,17:10,0.557,0.813,0.493,0.975,0.716,0.324,0.574,0.540,�k��,1.5,��
2023/05/22,17:20,0.557,0.814,0.494,0.975,0.717,0.324,0.575,0.541,�k,1.2,�L
2023/05/22,17:30,0.558,0.812,0.496,0.978,0.715,0.326,0.574,0.539,�k,1.5,�L
2023/05/22,17:40,0.558,0.811,0.497,0.978,0.718,0.324,0.574,0.540,�k�k��,2.3,�L
2023/05/22,17:50,0.558,0.811,0.496,0.976,0.716,0.326,0.574,0.543,�k��,2.6,�L
2023/05/22,18:00,0.557,0.811,0.495,0.976,0.715,0.326,0.575,0.540,���k��,2.8,�L
2023/05/22,18:10,0.555,0.808,0.495,0.978,0.714,0.325,0.575,0.540,���쓌,3.9,�L
2023/05/22,18:20,0.554,0.808,0.494,0.978,0.713,0.324,0.575,0.539,�쓌,4.2,��
2023/05/22,18:30,0.555,0.809,0.493,0.976,0.714,0.326,0.574,0.540,�쓌,3.5,�L
2023/05/22,18:40,0.554,0.810,0.493,0.975,0.712,0.324,0.575,0.540,��쓌,4.2,�L
2023/05/22,18:50,0.553,0.810,0.493,0.976,0.712,0.324,0.573,0.540,��,4.7,�L
2023/05/22,19:00,0.554,0.808,0.494,0.976,0.713,0.325,0.574,0.538,��쐼,4.6,�L
2023/05/22,19:10,0.554,0.807,0.494,0.976,0.711,0.326,0.574,0.539,��,4.8,�L
2023/05/22,19:20,0.554,0.806,0.494,0.974,0.712,0.325,0.575,0.539,��쐼,3.7,�L
2023/05/22,19:30,0.553,0.809,0.493,0.977,0.713,0.323,0.575,0.539,��쐼,3.1,�L
2023/05/22,19:40,0.554,0.809,0.492,0.977,0.713,0.324,0.574,0.539,��쐼,2.5,��
2023/05/22,19:50,0.553,0.808,0.493,0.974,0.712,0.324,0.575,0.540,��쐼,2.6,��
2023/05/22,20:00,0.555,0.807,0.492,0.975,0.715,0.324,0.574,0.540,�쐼,2.9,��
2023/05/22,20:10,0.554,0.809,0.492,0.977,0.713,0.325,0.574,0.539,�쐼,2.2,�L
2023/05/22,20:20,0.553,0.810,0.492,0.975,0.712,0.326,0.575,0.540,�쐼,2.0,�L
2023/05/22,20:30,0.553,0.808,0.493,0.974,0.713,0.325,0.575,0.539,���쐼,1.7,�L
2023/05/22,20:40,0.552,0.807,0.492,0.974,0.714,0.325,0.575,0.540,��,1.7,�L
2023/05/22,20:50,0.555,0.807,0.491,0.976,0.713,0.325,0.576,0.538,��,1.7,�L
2023/05/22,21:00,0.553,0.806,0.491,0.975,0.714,0.325,0.576,0.538,�k��,2.5,�L
2023/05/22,21:10,0.555,0.809,0.493,0.973,0.715,0.325,0.575,0.539,�k��,4.0,�L
2023/05/22,21:20,0.554,0.811,0.493,0.978,0.715,0.326,0.575,0.540,�k��,5.9,�L
2023/05/22,21:30,0.556,0.811,0.495,0.978,0.716,0.330,0.574,0.541,�k��,7.3,�L
2023/05/22,21:40,0.557,0.808,0.493,0.980,0.715,0.331,0.575,0.539,�k��,7.0,�L
2023/05/22,21:50,0.556,0.808,0.494,0.978,0.714,0.328,0.574,0.540,�k��,7.5,�L
2023/05/22,22:00,0.552,0.801,0.494,0.978,0.708,0.330,0.571,0.537,�k��,7.3,�L
2023/05/22,22:10,0.553,0.801,0.492,0.976,0.705,0.329,0.571,0.536,���k��,8.7,�L
2023/05/22,22:20,0.552,0.797,0.493,0.973,0.705,0.331,0.570,0.534,�k��,8.9,�L
2023/05/22,22:30,0.553,0.796,0.494,0.972,0.702,0.329,0.568,0.535,�k��,7.2,�L
2023/05/22,22:40,0.550,0.794,0.491,0.969,0.700,0.330,0.569,0.535,�k��,5.9,�L
2023/05/22,22:50,0.548,0.793,0.492,0.968,0.699,0.329,0.567,0.533,�k��,4.9,�L
2023/05/22,23:00,0.548,0.791,0.491,0.966,0.696,0.328,0.565,0.534,�k��,4.3,�L
2023/05/22,23:10,0.549,0.789,0.491,0.964,0.698,0.328,0.567,0.534,���k��,3.4,�L
2023/05/22,23:20,0.546,0.789,0.488,0.960,0.695,0.329,0.566,0.534,��,3.3,�L
2023/05/22,23:30,0.545,0.788,0.488,0.959,0.693,0.328,0.564,0.533,���k��,4.2,�L
2023/05/22,23:40,0.543,0.785,0.487,0.953,0.695,0.327,0.563,0.531,���k��,5.0,�L
2023/05/22,23:50,0.543,0.785,0.488,0.956,0.691,0.327,0.563,0.533,�k��,4.5,�L
